Date String (YYYY-MM-DD hh:mm:ss) UTC,Instrument flags,Ambient pressure (hPa),Sample flow (lpm),Bypass flow (lpm),Sample temperature (°C),Ambient temperature (°C),ASC tube jacket temperature (°C),LED temperature (°C),Box temperature (°C),Sample RH (%),Span deviation,Mass concentration (μg/m³),Mass concentration (μg/m³),Mass concentration (μg/m³)
DateTimeUTC,F1_M11,P_M11,Q1_M11,Q2_M11,T1_M11,T2_M11,T3_M11,T4_M11,T5_M11,U1_M11,ZSPAN_M11,X0_M11,X2_M11,X1_M11
2021-09-01 19:00:00,,0822.6,5.00,0.00,29.3,26.6,00.0,38.5,30.9,22.6,0001.0,0037.76,0022.07,0020.52
2021-09-01 19:01:00,,0822.5,4.99,0.00,29.3,27.0,00.0,38.4,31.0,22.5,0000.7,0038.37,0022.10,0020.51
2021-09-01 19:02:00,,0822.6,5.01,0.00,29.3,27.5,00.0,38.4,31.1,22.5,0000.8,0036.30,0022.15,0020.56
2021-09-01 19:03:00,,0822.6,4.99,0.00,29.4,27.8,00.0,38.4,31.2,23.0,0000.8,0037.65,0022.24,0020.60
2021-09-01 19:04:00,,0822.6,5.01,0.00,29.4,28.1,00.0,38.4,31.3,22.9,0000.8,0037.71,0022.37,0020.65
2021-09-01 19:05:00,,0822.6,5.00,0.00,29.5,28.4,00.0,38.5,31.4,22.7,0001.1,0037.71,0022.45,0020.69
2021-09-01 19:06:00,,0822.6,4.97,0.00,29.5,28.6,00.0,38.5,31.5,22.8,0001.3,0037.45,0022.53,0020.72
2021-09-01 19:07:00,,0822.6,5.00,0.00,29.6,28.7,00.0,38.5,31.5,23.1,0001.4,0037.72,0022.58,0020.74
2021-09-01 19:08:00,,0822.6,5.00,0.00,29.6,27.7,00.0,38.5,31.3,22.8,0001.6,0038.72,0022.55,0020.72
2021-09-01 19:09:00,,0822.6,5.01,0.00,29.4,26.2,00.0,38.5,30.8,23.0,0001.5,0038.62,0022.49,0020.72
2021-09-01 19:10:00,,0822.6,5.00,0.00,29.3,26.0,00.0,38.5,30.7,22.9,0001.7,0037.84,0022.46,0020.73
2021-09-01 19:11:00,,0822.6,4.99,0.00,29.3,26.5,00.0,38.5,30.8,21.8,0001.8,0038.47,0022.44,0020.73
2021-09-01 19:12:00,,0822.5,5.00,0.00,29.3,26.9,00.0,38.4,30.9,22.4,0001.9,0038.38,0022.42,0020.75
2021-09-01 19:13:00,,0822.5,5.00,0.00,29.3,27.4,00.0,38.4,31.0,22.1,0001.8,0038.50,0022.34,0020.73
2021-09-01 19:14:00,,0822.4,5.00,0.00,29.3,27.7,00.0,38.4,31.1,22.0,0002.0,0037.24,0022.29,0020.70
2021-09-01 19:15:00,,0822.4,5.01,0.00,29.4,28.1,00.0,38.4,31.3,22.6,0002.1,0037.13,0022.22,0020.65
2021-09-01 19:16:00,,0822.4,5.00,0.00,29.5,28.3,00.0,38.4,31.3,22.4,0002.2,0036.97,0022.13,0020.57
2021-09-01 19:17:00,,0822.4,5.00,0.00,29.5,28.5,00.0,38.5,31.4,22.0,0002.3,0036.98,0022.13,0020.52
2021-09-01 19:18:00,,0822.4,4.99,0.00,29.6,28.5,00.0,38.5,31.4,21.8,0002.3,0037.66,0022.06,0020.49
2021-09-01 19:19:00,,0822.4,5.01,0.00,29.5,27.1,00.0,38.5,31.1,21.9,0002.4,0036.54,0021.99,0020.44
2021-09-01 19:20:00,,0822.4,4.98,0.00,29.3,25.9,00.0,38.5,30.7,22.5,0002.5,0035.05,0021.95,0020.37
2021-09-01 19:21:00,,0822.4,5.01,0.00,29.3,26.2,00.0,38.5,30.8,23.0,0002.5,0035.42,0021.92,0020.32
2021-09-01 19:22:00,,0822.4,5.00,0.00,29.3,26.6,00.0,38.4,30.9,22.3,0002.4,0035.10,0021.86,0020.26
2021-09-01 19:23:00,,0822.4,5.01,0.00,29.3,27.1,00.0,38.4,31.0,21.4,0002.5,0034.46,0021.84,0020.22
2021-09-01 19:24:00,,0822.3,5.00,0.00,29.3,27.5,00.0,38.4,31.1,21.9,0002.4,0033.85,0021.82,0020.16
2021-09-01 19:25:00,,0822.4,4.99,0.00,29.3,27.9,00.0,38.4,31.2,22.3,0002.2,0033.41,0021.83,0020.14
2021-09-01 19:26:00,,0822.4,5.00,0.00,29.4,28.2,00.0,38.4,31.3,21.1,0002.1,0032.36,0021.80,0020.15
2021-09-01 19:27:00,,0822.4,5.01,0.00,29.5,28.4,00.0,38.4,31.4,21.3,0002.1,0031.95,0021.78,0020.19
2021-09-01 19:28:00,,0822.4,4.99,0.00,29.5,28.0,00.0,38.4,31.2,20.3,0001.9,0031.44,0021.73,0020.24
2021-09-01 19:29:00,,0822.4,5.01,0.00,29.4,26.3,00.0,38.4,30.7,20.5,0002.0,0031.20,0021.77,0020.28
2021-09-01 19:30:00,,0822.4,5.01,0.00,29.2,25.9,00.0,38.4,30.6,20.9,0002.0,0031.22,0021.78,0020.30
2021-09-01 19:31:00,,0822.4,4.99,0.00,29.2,26.4,00.0,38.4,30.7,20.9,0001.8,0031.82,0021.77,0020.31
2021-09-01 19:32:00,,0822.3,5.00,0.00,29.2,26.8,00.0,38.3,30.8,20.6,0001.7,0031.66,0021.78,0020.32
2021-09-01 19:33:00,,0822.4,5.00,0.00,29.2,27.3,00.0,38.3,30.9,20.4,0001.9,0030.63,0021.74,0020.35
2021-09-01 19:34:00,,0822.3,5.02,0.00,29.2,27.6,00.0,38.3,31.0,20.2,0001.8,0030.49,0021.72,0020.35
2021-09-01 19:35:00,,0822.4,4.99,0.00,29.3,28.0,00.0,38.3,31.1,19.3,0001.7,0030.71,0021.70,0020.36
2021-09-01 19:36:00,,0822.4,5.00,0.00,29.4,28.2,00.0,38.4,31.3,19.1,0001.8,0031.12,0021.69,0020.39
2021-09-01 19:37:00,,0822.4,5.00,0.00,29.4,28.0,00.0,38.4,31.2,19.6,0001.9,0031.78,0021.68,0020.39
2021-09-01 19:38:00,,0822.3,5.01,0.00,29.3,26.3,00.0,38.4,30.7,20.0,0001.9,0033.06,0021.73,0020.41
2021-09-01 19:39:00,,0822.4,4.99,0.00,29.1,25.8,00.0,38.3,30.5,19.6,0002.0,0033.75,0021.75,0020.40
2021-09-01 19:40:00,,0822.4,5.01,0.00,29.1,26.3,00.0,38.3,30.6,20.0,0002.0,0033.30,0021.75,0020.39
2021-09-01 19:41:00,,0822.3,4.99,0.00,29.1,26.7,00.0,38.3,30.7,20.5,0001.9,0033.93,0021.78,0020.43
2021-09-01 19:42:00,,0822.3,5.01,0.00,29.1,27.1,00.0,38.3,30.9,20.0,0002.1,0033.22,0021.82,0020.46
2021-09-01 19:43:00,,0822.3,5.00,0.00,29.2,27.6,00.0,38.3,31.0,20.3,0002.0,0033.16,0021.84,0020.50
2021-09-01 19:44:00,,0822.3,4.99,0.00,29.2,27.9,00.0,38.3,31.1,20.8,0001.8,0034.56,0021.91,0020.54
2021-09-01 19:45:00,,0822.3,5.00,0.00,29.3,28.2,00.0,38.3,31.2,21.3,0002.0,0035.55,0022.02,0020.58
2021-09-01 19:46:00,,0822.3,5.01,0.00,29.4,28.4,00.0,38.3,31.3,20.0,0002.1,0035.40,0022.14,0020.64
2021-09-01 19:47:00,,0822.3,5.01,0.00,29.4,28.3,00.0,38.3,31.3,19.5,0002.3,0035.69,0022.13,0020.63
2021-09-01 19:48:00,,0822.3,5.00,0.00,29.3,26.7,00.0,38.3,30.9,20.0,0002.5,0035.67,0022.11,0020.65
2021-09-01 19:49:00,,0822.2,5.00,0.00,29.2,25.9,00.0,38.3,30.6,20.3,0002.5,0034.49,0022.11,0020.68
2021-09-01 19:50:00,,0822.2,5.00,0.00,29.2,26.3,00.0,38.3,30.7,20.5,0002.4,0033.75,0022.15,0020.73
2021-09-01 19:51:00,,0822.2,5.00,0.00,29.1,26.7,00.0,38.3,30.8,20.9,0002.3,0033.71,0022.23,0020.78
2021-09-01 19:52:00,,0822.2,4.99,0.00,29.1,27.1,00.0,38.2,30.9,21.2,0002.4,0033.24,0022.30,0020.81
2021-09-01 19:53:00,,0822.2,5.00,0.00,29.2,27.5,00.0,38.2,31.0,21.5,0002.4,0033.85,0022.35,0020.85
2021-09-01 19:54:00,,0822.2,5.00,0.00,29.2,27.9,00.0,38.3,31.1,20.5,0002.4,0034.22,0022.35,0020.86
2021-09-01 19:55:00,,0822.2,5.01,0.00,29.3,28.2,00.0,38.3,31.2,20.3,0002.5,0033.12,0022.36,0020.88
2021-09-01 19:56:00,,0822.2,5.00,0.00,29.3,27.3,00.0,38.3,30.9,20.1,0002.5,0032.40,0022.28,0020.87
2021-09-01 19:57:00,,0822.2,4.99,0.00,29.1,25.8,00.0,38.2,30.5,20.3,0002.5,0032.18,0022.23,0020.88
2021-09-01 19:58:00,,0822.2,5.01,0.00,29.0,25.8,00.0,38.2,30.4,20.0,0002.5,0031.38,0022.28,0020.90
2021-09-01 19:59:00,,0822.1,4.99,0.00,29.0,26.2,00.0,38.2,30.6,19.8,0002.4,0030.98,0022.28,0020.85
